sat.trackr.live / text

‹ back to catalog

STARLINK-35802

NORAD 66289 · 2025-247AA

PAYLOAD ACTIVE UNKNOWN

§ Identity

Operator
Country
US
Launch date
2025-10-31
Launch site
AFWTR
Launch vehicle
Mass (kg)
RCS (m²)

Purposes: comms

External: N2YO · Heavens-Above · Gunter

§ Orbital elements

Epoch: 2026-09-20T13:21:30.833568Z

Period
93.85 min
Inclination
53.1670°
Eccentricity
0.0000914
Mean motion
15.34400414 rev/d
Perigee alt
462.1 km
Apogee alt
463.3 km
Semi-major
6,840.8 km
B*
5.8660e-4
RAAN
1.6994°
Arg perigee
76.2011°
Mean anomaly
283.9094°
Rev number
5,093

§ Raw data

STARLINK-358021 66289U 25247AA  26263.55660687  .00019495  00000+0  58660-3 0  99982 66289  53.1670   1.6994 0000914  76.2011 283.9094 15.34400414 50933

JSON: /api/v1/satellites/66289 · /tle

For live sub-satellite position, see the globe view (requires WebGL).

§ Visibility from observer

Set your observer location to see the next 7 days of passes ≥ 10°. The values pass through the URL so the page stays shareable.

No JS? Fill the form by hand. The geolocation button needs JavaScript.